Regional Weather Roundup
Issued by NWS

Home | Current Version | Previous Version | Text Only | Print | Product List | Glossary On
Versions: 1 2 3 4 5 6 7 8 9 10 11 12 13 14 15 16 17 18 19 20 21 22 23 24 25 26 27 28 29 30 31 32 33 34 35 36 37 38 39 40 41 42 43 44 45 46 47 48 49 50
000
ASUS43 KDTX 231101
RWRMI
MICHIGAN HOURLY REGIONAL WEATHER ROUNDUP
NATIONAL WEATHER SERVICE DETROIT/PONTIAC MI
700 AM EDT SAT SEP 23 2017

NOTE: "FAIR" INDICATES FEW OR NO CLOUDS BELOW 12,000 FEET WITH NO
SIGNIFICANT WEATHER AND/OR OBSTRUCTION TO VISIBILITY.

MIZ047>049-052>055-059>063-066>070-074>076-081>083-231200-
SOUTHEAST LOWER MICHIGAN

CITY           SKY/WX    TMP DP  RH WIND       PRES   REMARKS
ADRIAN         CLEAR     61  59  93 CALM      30.12R FOG
ALMA           CLEAR     60  59  95 CALM      30.11R FOG
ANN ARBOR      FOG       57  57 100 CALM      30.11R VSB 3/4
BAD AXE        PTCLDY    67  63  86 S3        30.11R
CARO           CLEAR     64  62  92 CALM      30.10S
DETROIT CITY   CLEAR     64  62  93 CALM      30.12R
DETROIT        PTCLDY    66  64  93 NE3       30.12R FOG
FLINT          CLEAR     64  62  93 CALM      30.12R
GROSSE ILE     CLEAR     64  63  96 NE5       30.11R FOG
HILLSDALE      CLEAR     61  59  94 CALM      30.12R FOG
HOWELL         CLEAR     64  62  96 CALM      30.12R FOG

CITY           SKY/WX    TMP DP  RH WIND       PRES   REMARKS
JACKSON        CLEAR     64  62  93 CALM      30.11R FOG
LAMBERTVILLE   FOG       62  60  93 CALM      30.10S VSB 1/4
LANSING        CLEAR     64  60  87 E5        30.12R
LAPEER         FAIR      62  61  97 CALM      30.12S FOG
MASON          CLEAR     66  62  88 CALM      30.12R
MONROE         FOG       60  58  94 CALM      30.10R VSB 1/4
PONTIAC        CLOUDY    66  64  93 CALM      30.12R
PORT HOPE        N/A     73  65  75 SW6       30.08R
PORT HURON     CLOUDY    64  63  94 CALM      30.13R FOG
TRI CITIES     CLEAR     69  67  93 SW7       30.10R
MIDLAND        FAIR      62  62 100 CALM      30.09S FOG
TROY           CLEAR     67  64  90 CALM      30.14R
SAGINAW HB     CLEAR     68  63  83 S6        30.09S
$$
MIZ043>046-050>051-056>058-064>065-071>073-077>080-231200-
SOUTHWEST LOWER MICHIGAN

CITY           SKY/WX    TMP DP  RH WIND       PRES   REMARKS
BATTLE CREEK   CLEAR     65  64  97 CALM      30.12R
BENTON HARBOR  CLEAR     67  65  93 E3        30.08R FOG
BIG RAPIDS     PTCLDY    60  59  94 CALM      30.10R FOG
COLDWATER      CLEAR     64  64 100 CALM      30.11R
FREMONT        FAIR      66  66  99 CALM      30.08S
HOLLAND        CLEAR     68  65  90 S3        30.10R
GRAND RAPIDS   PTCLDY    69  66  90 SE3       30.10R
KALAMAZOO      CLEAR     67  63  87 CALM      30.11R
LUDINGTON      CLEAR     68  64  84 SE3       30.06R
MARSHALL       CLEAR     62  61  98 CALM      30.11R FOG
MOUNT PLEASANT FOG       63  63 100 CALM      30.09S VSB 1/2
MUSKEGON       CLEAR     69  65  86 SE3       30.08R
SOUTH HAVEN    CLEAR     70  67  89 CALM      30.09R
$$
MIZ016>042-231200-
NORTHERN LOWER MICHIGAN

CITY           SKY/WX    TMP DP  RH WIND       PRES   REMARKS
ALPENA         CLEAR     64  64 100 CALM      30.07R
BEAVER ISLAND  PTCLDY    73  66  78 S8G17     30.02S
BELLAIRE       CLEAR     61  59  92 CALM      30.06R
CADILLAC       CLEAR     61  57  86 CALM      30.10R
CHARLEVOIX     CLEAR     72  64  76 S7        30.07R
FRANKFORT      CLEAR     76  66  70 S3        30.05S
GAYLORD        CLEAR     66  62  87 CALM      30.10R
GRAYLING       CLEAR     58  56  93 CALM      30.11R
HARBOR SPRINGS CLEAR     65  63  94 CALM      30.04S
HOUGHTON LAKE  CLEAR     59  57  93 CALM      30.11S FOG
MANISTEE       CLEAR     62  61  96 E3        30.06R FOG
OSCODA         CLOUDY    67  67  99 SE3       30.08R
PELLSTON       CLEAR     62  61  96 SE5       30.04S
ROGERS CITY    CLEAR     70  64  80 SW8       30.06S
TRAVERSE CITY  PTCLDY    68  63  84 CALM      30.05R
$$
MIZ007>008-015-231200-
EASTERN UPPER MICHIGAN

CITY           SKY/WX    TMP DP  RH WIND       PRES   REMARKS
KINROSS        CLOUDY    66  63  90 SE5       30.03S
MACKINAC ISLAN CLOUDY    71  63  76 S10       30.02S
NEWBERRY       PTCLDY    67  66  97 S9        30.00S
S. S. MARIE    CLEAR     65  64  97 E5        30.03S FOG
MUNISING         N/A     69  67  93 S5        29.96R
$$
MIZ004>006-011>014-085-231200-
CENTRAL UPPER MICHIGAN

CITY           SKY/WX    TMP DP  RH WIND       PRES   REMARKS
MANISTIQUE     CLOUDY    65  60  81 SW6       30.00S HAZE
ESCANABA       FOG       59  59 100 CALM      29.99S VSB 1/4
MENOMINEE      CLEAR     69  65  86 SW6       30.01R
SAWYER-GWINN     N/A     61  59  94 S6        29.99R FOG
$$
MIZ001>003-009>011-084-231200-
WESTERN UPPER MICHIGAN

CITY           SKY/WX    TMP DP  RH WIND       PRES   REMARKS
IRON MOUNTAIN  CLEAR     71  63  75 W6        29.99R
HOUGHTON       PTCLDY    72  65  78 SW8       29.92R
COPPER HARBOR    N/A     67  64  90 W10       29.87R
IRONWOOD       PTCLDY    75  67  76 SW13      29.94R
$$

ABBREVIATIONS USED IN REMARKS
   TC - TEMPERATURE IN CELSIUS
  WCI - WIND CHILL INDEX
   HX - HEAT INDEX
  VSB - VISIBILITY





USA.gov is the U.S. government's official web portal to all federal, state and local government web resources and services.